TimeCDT,TemperatureF,Dew PointF,Humidity,Sea Level PressureIn,VisibilityMPH,Wind Direction,Wind SpeedMPH,Gust SpeedMPH,PrecipitationIn,Events,Conditions,WindDirDegrees,DateUTC
12:54 AM,68.0,63.0,84,29.68,10.0,South,8.1,-,N/A,,Overcast,190,2013-05-22 05:54:00
1:54 AM,66.9,63.0,87,29.67,10.0,SW,5.8,-,N/A,,Overcast,230,2013-05-22 06:54:00
2:54 AM,66.9,60.1,79,29.66,10.0,West,5.8,-,N/A,,Overcast,260,2013-05-22 07:54:00
3:54 AM,66.0,57.9,75,29.66,10.0,SSW,5.8,-,N/A,,Overcast,210,2013-05-22 08:54:00
4:54 AM,64.0,59.0,84,29.65,10.0,SSW,4.6,-,0.01,,Overcast,200,2013-05-22 09:54:00
5:54 AM,64.0,60.1,87,29.67,10.0,SSW,6.9,-,0.00,Rain,Light Rain,210,2013-05-22 10:54:00
6:54 AM,64.0,60.1,87,29.64,10.0,Calm,Calm,-,0.00,,Mostly Cloudy,0,2013-05-22 11:54:00
7:54 AM,64.9,61.0,87,29.65,10.0,SW,6.9,-,0.00,,Overcast,230,2013-05-22 12:54:00
8:35 AM,64.0,60.1,87,29.68,1.8,West,9.2,-,0.01,Rain,Heavy Rain,270,2013-05-22 13:35:00
8:46 AM,63.0,60.1,90,29.68,3.0,West,6.9,-,0.06,Rain,Light Rain,260,2013-05-22 13:46:00
8:52 AM,62.6,60.8,94,29.69,2.5,West,9.2,-,0.08,Rain,Rain,270,2013-05-22 13:52:00
8:54 AM,63.0,60.1,90,29.68,2.0,West,11.5,-,0.08,Rain,Heavy Rain,270,2013-05-22 13:54:00
9:01 AM,62.1,59.0,90,29.70,1.5,West,12.7,18.4,0.03,Rain,Heavy Rain,280,2013-05-22 14:01:00
9:13 AM,60.1,55.9,86,29.70,2.5,WNW,10.4,-,0.09,Rain,Light Rain,290,2013-05-22 14:13:00
9:20 AM,59.0,55.9,90,29.70,6.0,WNW,6.9,-,0.10,Rain,Light Rain,290,2013-05-22 14:20:00
9:54 AM,64.0,55.9,75,29.69,10.0,WNW,3.5,-,0.10,,Overcast,300,2013-05-22 14:54:00
10:54 AM,66.0,57.0,73,29.69,10.0,West,4.6,-,0.00,,Overcast,270,2013-05-22 15:54:00
11:54 AM,69.1,57.0,65,29.70,10.0,SW,8.1,-,N/A,,Clear,230,2013-05-22 16:54:00
12:54 PM,71.1,57.0,61,29.70,10.0,SSW,8.1,-,N/A,,Mostly Cloudy,210,2013-05-22 17:54:00
1:54 PM,71.1,54.0,55,29.70,10.0,West,11.5,-,N/A,,Overcast,260,2013-05-22 18:54:00
2:54 PM,73.0,55.0,53,29.70,10.0,West,12.7,-,N/A,,Mostly Cloudy,260,2013-05-22 19:54:00
3:54 PM,70.0,54.0,57,29.70,10.0,West,12.7,24.2,N/A,,Overcast,260,2013-05-22 20:54:00
4:54 PM,68.0,54.0,61,29.72,10.0,West,11.5,24.2,N/A,,Overcast,270,2013-05-22 21:54:00
5:54 PM,66.9,54.0,63,29.73,10.0,West,15.0,20.7,N/A,,Overcast,280,2013-05-22 22:54:00
6:54 PM,64.9,54.0,68,29.74,10.0,West,13.8,19.6,N/A,,Overcast,270,2013-05-22 23:54:00
7:54 PM,64.0,54.0,70,29.75,10.0,West,11.5,19.6,N/A,,Overcast,270,2013-05-23 00:54:00
8:54 PM,63.0,53.1,70,29.77,10.0,West,12.7,-,N/A,,Overcast,270,2013-05-23 01:54:00
9:54 PM,61.0,54.0,78,29.79,10.0,West,10.4,-,N/A,,Overcast,260,2013-05-23 02:54:00
10:54 PM,61.0,54.0,78,29.80,10.0,West,9.2,-,N/A,,Overcast,260,2013-05-23 03:54:00
11:42 PM,60.1,54.0,80,29.81,10.0,West,9.2,-,N/A,,Overcast,270,2013-05-23 04:42:00
11:54 PM,60.1,54.0,80,29.81,10.0,West,6.9,-,N/A,,Overcast,270,2013-05-23 04:54:00